Regional Weather Roundup
Issued by NWS

Home | Current Version | Previous Version | Graphics & Text | Print | Product List | Glossary On
Versions: 1 2 3 4 5 6 7 8 9 10 11 12 13 14 15 16 17 18 19 20 21 22 23 24 25 26 27 28 29 30 31 32 33 34 35 36 37 38 39 40 41 42 43 44 45 46 47 48 49 50
000
ASUS43 KOAX 311002
RWRNE

WEATHER ROUNDUP FOR NEBRASKA
NATIONAL WEATHER SERVICE OMAHA NE
500 AM CDT MON AUG 31 2015

NOTES: SATELLITE DATA IS BEING USED TO AUGMENT CLOUD COVER ABOVE
       12000 FEET.
       "FAIR" INDICATES FEW OR NO CLOUDS BELOW 12,000 FEET WITH NO
       SIGNIFICANT WEATHER AND/OR OBSTRUCTIONS TO VISIBILITY.

  * THESE STATIONS DO NOT REPORT WEATHER SUCH AS RAIN...SNOW OR FOG.

NEZ001>004-019>022-054>056-311100-
NEBRASKA PANHANDLE

CITY           SKY/WX    TMP DP  RH WIND       PRES   REMARKS
SCOTTSBLUFF    CLOUDY    68  56  65 N6        29.92R
ALLIANCE       MOCLDY    64  49  57 S7        29.91R
CHADRON        CLOUDY    71  52  50 SE5       29.83F
KIMBALL        MOCLDY    64  48  57 W7        29.98R
SIDNEY         PTCLDY    60  48  64 S8        29.95S
$$

NEZ057>060-069>072-079>082-311100-
SOUTHWEST NEBRASKA

CITY           SKY/WX    TMP DP  RH WIND       PRES   REMARKS
NORTH PLATTE   CLEAR     59  55  87 E7        29.92F
IMPERIAL       CLEAR     63  49  60 SE10      29.91F
LEXINGTON      CLEAR     64  62  91 S7        29.94S
MCCOOK         CLEAR     62  54  74 SE6       29.92F
$$

NEZ005>010-023>029-035>040-094-311100-
NORTH CENTRAL NEBRASKA

CITY           SKY/WX    TMP DP  RH WIND       PRES   REMARKS
VALENTINE      CLEAR     70  50  49 S20       29.83S
AINSWORTH      PTCLDY    67  59  75 S18       29.87R
BROKEN BOW     CLEAR     64  61  90 S7        29.93S
ORD            CLEAR     62  61  96 SE5       29.93R
$$

NEZ041-046>049-061>064-073>077-083>087-311100-
SOUTH CENTRAL NEBRASKA

CITY           SKY/WX    TMP DP  RH WIND       PRES   REMARKS
GRAND ISLAND   CLEAR     63  62  97 S7        29.94S
AURORA         CLEAR     64  64 100 S6        29.93S
HASTINGS       CLEAR     63  61  93 S5        29.94S FOG
HEBRON         CLEAR     64  64  99 S5        29.94S FOG
HOLDREGE       CLEAR     61  60  95 S3        29.94S FOG
KEARNEY *      CLEAR     63  59  88 S7        29.94S
YORK           CLOUDY    64  64 100 S7        29.93F FOG
$$

NEZ011>018-030>034-042>045-311100-
NORTHEAST NEBRASKA

CITY           SKY/WX    TMP DP  RH WIND       PRES   REMARKS
NORFOLK        PTCLDY    66  64  93 S6        29.93R
ALBION         MOCLDY    63  61  94 SE5       29.94S FOG
BLAIR          FOG       65  63  93 S3        29.95S VSB 1
COLUMBUS *     CLEAR    N/A N/A N/A CALM      29.93S
FREMONT        CLEAR     65  63  95 SE5       29.94S FOG
TEKAMAH        FOG       61  60  97 CALM      29.94S VSB 1/4
$$

NEZ050>053-065>068-078-088>093-311100-
SOUTHEAST NEBRASKA

CITY           SKY/WX    TMP DP  RH WIND       PRES   REMARKS
LINCOLN        CLEAR     64  63  96 S3        29.95S FOG
OMAHA EPPLEY   PTCLDY    66  65  96 S5        29.94F
BEATRICE       CLEAR     65  65  97 SE6       29.95S FOG
FALLS CITY     FOG       65  65 100 SE3       29.95R VSB 1
NEBRASKA CITY  FOG       63  63  99 S3        29.96R VSB 1/4
PLATTSMOUTH      N/A     65  64  96 SE7       29.95F FOG
$$

NEZ044-045-051>053-067-311100-
OMAHA AREA

CITY           SKY/WX    TMP DP  RH WIND       PRES   REMARKS
OMAHA EPPLEY   PTCLDY    66  65  96 S5        29.94F
BLAIR          FOG       65  63  93 S3        29.95S VSB 1
FREMONT        CLEAR     65  63  95 SE5       29.94S FOG
OFFUTT AFB     CLEAR     59  59  99 E5        29.94S FOG
PLATTSMOUTH      N/A     65  64  96 SE7       29.95F FOG
WAHOO          FOG       61  60  97 CALM      29.94F VSB 1/4
$$



USA.gov is the U.S. government's official web portal to all federal, state and local government web resources and services.